Location: Centrum přírodních věd - Hvězdárna Jičín
(50.4344°N, 15.3406°E)
Time: 07:27:34
(UTC+02:00)

ISS - Visible Passes

Search period start: 21 October 2018 00:00
Search period end: 30 October 2018 23:00
Orbit: 403 x 408 km, 51.6° (Epoch: 21 October)

Date Brightness Start Highest point End Pass type
(mag) Time Alt. Az. Time Alt. Az. Time Alt. Az.
26 Oct -1.0 07:07:05 10° S 07:09:28 19° SE 07:11:53 10° E visible
27 Oct -0.7 06:16:23 10° SSE 06:17:42 12° SE 06:19:00 10° ESE visible
28 Oct -2.2 05:58:39 10° SW 06:01:39 34° SSE 06:04:40 10° E visible
29 Oct -1.6 05:07:08 10° SSW 05:09:45 22° SE 05:12:22 10° E visible
30 Oct -1.1 04:17:22 14° SSE 04:17:55 14° SE 04:19:45 10° ESE visible
30 Oct -3.3 05:50:39 10° WSW 05:53:53 58° SSE 05:57:08 10° ENE visible
